Location: D�derode
(51.8092°N, 10.1065°E)
Time: 16:32:04
(UTC+00:00)

BREEZE-M DEB (TANK) - Pass Details

Date: 21 April 2021
Orbit: 315 x 13085 km, 49.6° (Epoch: 11 May)

Event Time Altitude Azimuth Distance (km) Brightness Sun altitude
Rises 22:48:35 0° 263° (W) 11,126 9.4 -25.7°
Reaches altitude 10° 22:59:41 10° 264° (W) 7,784 8.6 -25.9°
Maximum altitude 23:17:47 78° 183° (S) 1,336 4.4 -26.0°
Enters shadow 23:21:41 17° 98° (E) 1,921 5.5 -26.0°
